Home > Weather > Niamey > Past weeks

Flag for Niger Past Weather in Niamey, Niger — Yesterday and Last 2 Weeks

Now
86 °F

Clear.


Feels Like: 92 °F
Forecast: 80 / 96 °F
Wind: 1 mph from Southwest

Location: Niamey-Aero

Current Time: Jul 1, 2016 at 12:15:11 AM

Latest Report: Jun 30, 2016 at 11:00 PM


Visibility: 10 mi

Pressure: 29.98 "Hg

Humidity: 62%

Dew Point: 72 °F

Location of NiameyLocation

Past Weather in Niamey — Graph

°F

Niamey Temperature Yesterday

Maximum temperature yesterday: 93 °F (at 3:00 PM)
Minimum temperature yesterday: 75 °F (at 3:00 AM)
Average temperature yesterday: 84 °F

High & Low Weather Summary for the Past Weeks

 TemperatureHumidityPressure
High102 °F (Jun 19, 3:00 PM)100% (Jun 24, 1:00 PM)30.07 "Hg (Jun 24, 1:00 PM)
Low68 °F (Jun 29, 11:00 AM)26% (Jun 19, 3:00 PM)29.71 "Hg (Jun 19, 5:00 PM)
Average86 °F59%29.90 "Hg
* Reported Jun 15 11:00 PM — Jun 30 11:00 PM, Niamey, Weather by CustomWeather, © 2016

Note: Actual official high and low records may vary slightly from our data, if they occured in-between our weather recording intervals... More about our weather records

Advertising

Niamey Weather History for the Previous 24 Hours

Scroll right to see more
 ConditionsComfort  
Time TempWeatherWind HumidityBarometerVisibility
11:00 PM
Thu, Jun 30
86 °FClear.1 mph62%29.98 "Hg10 mi
10:00 PM86 °FClear.2 mph62%29.95 "Hg10 mi
9:00 PM88 °FClear.2 mph52%29.95 "Hg10 mi
8:00 PM88 °FClear.3 mph49%29.92 "Hg10 mi
7:00 PM90 °FSunny.3 mph46%29.89 "Hg10 mi
6:00 PM93 °FPassing clouds.7 mph41%29.89 "HgN/A
5:00 PM93 °FPassing clouds.8 mph41%29.89 "HgN/A
4:00 PM93 °FSunny.8 mph41%29.89 "Hg10 mi
3:00 PM93 °FPassing clouds.7 mph41%29.92 "HgN/A
2:00 PM91 °FPassing clouds.9 mph49%29.95 "HgN/A
1:00 PM90 °FPassing clouds.8 mph55%29.95 "HgN/A
12:00 PM88 °FPassing clouds.9 mph62%29.98 "HgN/A
11:00 AM84 °FPassing clouds.9 mph66%29.98 "HgN/A
10:00 AM82 °FSunny.9 mph74%29.98 "Hg10 mi
9:00 AM81 °FPassing clouds.8 mph79%29.98 "HgN/A
8:00 AM79 °FSunny.6 mph84%29.95 "Hg10 mi
7:00 AM77 °FSunny.3 mph89%29.95 "Hg10 mi
6:00 AM77 °FClear.3 mph89%29.92 "Hg10 mi
5:00 AM75 °FClear.2 mph100%29.89 "Hg10 mi
4:00 AM75 °FClear.3 mph100%29.89 "Hg10 mi
3:00 AM75 °FClear.6 mph94%29.89 "Hg10 mi
2:00 AM77 °FClear.6 mph89%29.89 "Hg10 mi
1:00 AM77 °FPassing clouds.6 mph89%29.92 "HgN/A
12:00 AM77 °FPassing clouds.7 mph94%29.92 "HgN/A
Weather by CustomWeather, © 2016

See weather overviewHow to use our weather pages